Flag for U.S.A. Weather past 2 weeks in Inverness, Florida, U.S.A.

57 °F


Feels Like: 57 °F
Forecast: 57 / 76 °F
Wind: No wind

Location: The Villages

Current Time: Nov 25, 2015 at 3:44:38 AM

Latest Report: Nov 25, 2015 at 3:15 AM

Visibility: 10 mi

Pressure: 30.17 "Hg

Humidity: 94%

Dew point: 55 °F

Location of InvernessLocation

Historic Weather in Inverness — Graph


Inverness temperature yesterday

Maximum temperature yesterday: 73 °F (at 1:15 PM)
Minimum temperature yesterday: 48 °F (at 3:15 AM)
Average temperature yesterday: 60 °F

Past Weeks' High & Low Weather Summary

High88 °F (Nov 12, 2:35 PM)100% (Nov 10, 2:15 AM)30.22 "Hg (Nov 10, 2:15 AM)
Low43 °F (Nov 23, 5:55 AM)37% (Nov 23, 2:55 PM)29.74 "Hg (Nov 22, 2:55 AM)
Average70 °F87%29.99 "Hg
* Reported Nov 10 2:15 AM — Nov 25 2:55 AM, Inverness, Weather by CustomWeather, © 2015

Note: Actual official high and low records may vary slightly from our data, if they occured in-between our weather recording intervals... More about our weather records


Inverness weather history for previous 24 hours

Time TempWeatherWind HumidityBarometerVisibility
2:55 AM
Wed, Nov 25
57 °FCool.No wind100%30.17 "Hg10 mi
2:15 AM59 °FCool.No wind94%30.18 "Hg10 mi
1:55 AM59 °FCool.No wind94%30.18 "Hg10 mi
1:15 AM61 °FCool.No wind88%30.19 "Hg10 mi
12:55 AM61 °FCool.3 mph88%30.18 "Hg10 mi
12:15 AM61 °FCool.No wind94%30.20 "Hg10 mi
11:55 PM
Tue, Nov 24
61 °FCool.No wind94%30.20 "Hg10 mi
11:15 PM61 °FCool.No wind88%30.20 "Hg10 mi
10:35 PM63 °FMild.No wind83%30.20 "Hg10 mi
10:15 PM63 °FMild.No wind88%30.20 "Hg10 mi
9:55 PM61 °FCool.No wind88%30.19 "Hg10 mi
9:35 PM61 °FCool.No wind88%30.19 "Hg10 mi
9:15 PM63 °FMild.6 mph83%30.20 "Hg10 mi
8:55 PM63 °FMild.No wind83%30.20 "Hg10 mi
8:35 PM63 °FMild.5 mph83%30.20 "Hg10 mi
8:15 PM64 °FMild.No wind78%30.20 "Hg10 mi
7:35 PM64 °FMild.No wind73%30.17 "Hg10 mi
7:15 PM64 °FMild.No wind73%30.17 "Hg10 mi
6:55 PM64 °FMild.No wind73%30.17 "HgN/A
6:35 PM64 °FMild.No wind73%30.17 "Hg10 mi
6:15 PM64 °FMild.No wind73%30.17 "Hg10 mi
5:55 PM64 °FMild.No wind73%30.16 "Hg10 mi
5:15 PM66 °FMild.8 mph68%30.15 "Hg10 mi
4:55 PM68 °FMild.12 mph64%30.15 "Hg9 mi
4:35 PM68 °FMild.10 mph64%30.15 "Hg10 mi
4:15 PM68 °FMild.13 mph64%30.14 "Hg9 mi
3:55 PM72 °FMild.14 mph57%30.14 "Hg10 mi
3:35 PM72 °FMild.14 mph57%30.14 "Hg10 mi
3:15 PM70 °FMild.8 mph60%30.14 "Hg10 mi
2:55 PM70 °FMild.14 mph60%30.13 "Hg10 mi
2:35 PM72 °FMild.9 mph57%30.13 "Hg10 mi
2:15 PM70 °FMild.10 mph57%30.13 "Hg9 mi
1:55 PM72 °FMild.14 mph57%30.14 "Hg8 mi
1:35 PM72 °FMild.8 mph53%30.14 "Hg9 mi
1:15 PM73 °FMild.8 mph53%30.15 "Hg10 mi
12:55 PM72 °FMild.7 mph57%30.16 "Hg10 mi
12:35 PM70 °FMild.10 mph60%30.16 "Hg10 mi
12:15 PM72 °FMild.6 mph61%30.17 "Hg10 mi
11:55 AM70 °FMild.9 mph64%30.19 "Hg10 mi
11:35 AM70 °FMild.14 mph60%30.20 "Hg10 mi
11:15 AM68 °FMild.12 mph64%30.21 "Hg10 mi
10:55 AM68 °FMild.9 mph64%30.21 "Hg10 mi
10:35 AM66 °FMild.No wind73%30.21 "Hg10 mi
10:15 AM64 °FMild.12 mph73%30.21 "HgN/A
9:55 AM63 °FMild.10 mph77%30.21 "Hg10 mi
9:35 AM63 °FMild.10 mph73%30.21 "Hg10 mi
9:15 AM61 °FCool.8 mph77%30.21 "Hg10 mi
8:55 AM57 °FCool.8 mph88%30.20 "Hg9 mi
8:35 AM55 °FCool.8 mph88%30.20 "Hg10 mi
8:15 AM54 °FCool.7 mph88%30.20 "Hg10 mi
7:55 AM52 °FCool.7 mph94%30.19 "Hg10 mi
7:35 AM50 °FCool.8 mph94%30.19 "Hg10 mi
7:15 AM50 °FCool.No wind94%30.19 "Hg10 mi
6:55 AM48 °FCool.No wind100%30.18 "Hg10 mi
6:35 AM48 °FCool.No wind100%30.17 "Hg10 mi
6:15 AM48 °FCool.No wind100%30.16 "Hg10 mi
5:55 AM48 °FCool.5 mph100%30.16 "Hg10 mi
5:35 AM48 °FCool.No wind100%30.16 "Hg10 mi
5:15 AM50 °FCool.5 mph94%30.15 "Hg8 mi
4:55 AM50 °FCool.No wind94%30.15 "Hg8 mi
4:35 AM50 °FCool.No wind94%30.15 "Hg10 mi
4:15 AM50 °FCool.No wind94%30.15 "Hg10 mi
3:55 AM48 °FCool.5 mph100%30.15 "Hg10 mi
3:35 AM50 °FCool.6 mph94%30.15 "Hg10 mi
3:15 AM48 °FCool.5 mph100%30.15 "Hg10 mi
Weather by CustomWeather, © 2015

See weather overviewHow to use our weather pages